Time,TemperatureF,DewpointF,PressureIn,WindDirection,WindDirectionDegrees,WindSpeedMPH,WindSpeedGustMPH,Humidity,HourlyPrecipIn,Conditions,Clouds,dailyrainin,SoftwareType,DateUTC
2013-10-04 00:00:00,65.1,58.8,0.00,SSW,200,0.0,0.0,80,0.00,,---,0.00,VWS V13.01,2013-10-04 04:00:00,
2013-10-04 00:31:00,64.2,57.9,0.00,SSW,200,0.0,0.0,80,0.00,,---,0.00,VWS V13.01,2013-10-04 04:31:00,
2013-10-04 00:32:00,64.2,57.9,0.00,SSW,200,0.0,0.0,80,0.00,,---,0.00,VWS V13.01,2013-10-04 04:32:00,
2013-10-04 00:35:00,64.2,57.9,0.00,SSW,200,0.0,0.0,80,0.00,,---,0.00,VWS V13.01,2013-10-04 04:35:00,
2013-10-04 00:36:00,64.2,57.9,0.00,SSW,200,0.0,0.0,80,0.00,,---,0.00,VWS V13.01,2013-10-04 04:36:00,
2013-10-04 00:39:00,64.2,58.3,0.00,SSW,200,0.0,0.0,81,0.00,,---,0.00,VWS V13.01,2013-10-04 04:39:00,
2013-10-04 00:40:00,64.2,58.3,0.00,SSW,200,0.0,0.0,81,0.00,,---,0.00,VWS V13.01,2013-10-04 04:40:00,
2013-10-04 00:43:00,64.2,58.3,0.00,SSW,200,0.0,0.0,81,0.00,,---,0.00,VWS V13.01,2013-10-04 04:43:00,
2013-10-04 00:44:00,64.2,58.3,0.00,SSW,200,0.0,0.0,81,0.00,,---,0.00,VWS V13.01,2013-10-04 04:44:00,
2013-10-04 00:45:00,64.2,58.3,0.00,SSW,200,0.0,0.0,81,0.00,,---,0.00,VWS V13.01,2013-10-04 04:45:00,
2013-10-04 00:46:00,64.0,58.1,0.00,SSW,200,0.0,0.0,81,0.00,,---,0.00,VWS V13.01,2013-10-04 04:46:00,
2013-10-04 00:47:00,64.0,58.1,0.00,SSW,200,0.0,0.0,81,0.00,,---,0.00,VWS V13.01,2013-10-04 04:47:00,
2013-10-04 00:48:00,64.0,58.1,0.00,SSW,200,0.0,0.0,81,0.00,,---,0.00,VWS V13.01,2013-10-04 04:48:00,
2013-10-04 00:53:00,64.0,58.1,0.00,SSW,200,0.0,0.0,81,0.00,,---,0.00,VWS V13.01,2013-10-04 04:53:00,
2013-10-04 00:54:00,64.0,58.1,0.00,SSW,200,0.0,0.0,81,0.00,,---,0.00,VWS V13.01,2013-10-04 04:54:00,
2013-10-04 00:56:00,63.9,57.9,0.00,SSW,200,0.0,0.0,81,0.00,,---,0.00,VWS V13.01,2013-10-04 04:56:00,
2013-10-04 00:59:00,63.9,57.9,0.00,SSW,200,0.0,0.0,81,0.00,,---,0.00,VWS V13.01,2013-10-04 04:59:00,
2013-10-04 01:01:00,63.9,57.9,0.00,SSW,200,0.0,0.0,81,0.00,,---,0.00,VWS V13.01,2013-10-04 05:01:00,
2013-10-04 01:05:00,63.7,57.8,0.00,SSW,200,0.0,0.0,81,0.00,,---,0.00,VWS V13.01,2013-10-04 05:05:00,
2013-10-04 01:07:00,63.7,57.8,0.00,SSW,200,0.0,0.0,81,0.00,,---,0.00,VWS V13.01,2013-10-04 05:07:00,
2013-10-04 01:11:00,63.5,57.6,0.00,SSW,200,0.0,0.0,81,0.00,,---,0.00,VWS V13.01,2013-10-04 05:11:00,
2013-10-04 01:14:00,63.5,57.6,0.00,SSW,200,0.0,0.0,81,0.00,,---,0.00,VWS V13.01,2013-10-04 05:14:00,
2013-10-04 01:22:00,63.5,57.6,0.00,SSW,200,0.0,0.0,81,0.00,,---,0.00,VWS V13.01,2013-10-04 05:22:00,
2013-10-04 01:24:00,63.3,57.4,0.00,SSW,200,0.0,0.0,81,0.00,,---,0.00,VWS V13.01,2013-10-04 05:24:00,
2013-10-04 01:27:00,63.3,57.4,0.00,SSW,200,0.0,0.0,81,0.00,,---,0.00,VWS V13.01,2013-10-04 05:27:00,
2013-10-04 01:28:00,63.3,57.4,0.00,SSW,200,0.0,0.0,81,0.00,,---,0.00,VWS V13.01,2013-10-04 05:28:00,
2013-10-04 01:33:00,63.1,57.2,0.00,SSW,200,0.0,0.0,81,0.00,,---,0.00,VWS V13.01,2013-10-04 05:33:00,
2013-10-04 01:38:00,63.0,57.0,0.00,SSW,200,0.0,0.0,81,0.00,,---,0.00,VWS V13.01,2013-10-04 05:38:00,
2013-10-04 01:43:00,63.0,57.0,0.00,SSW,200,0.0,0.0,81,0.00,,---,0.00,VWS V13.01,2013-10-04 05:43:00,
2013-10-04 01:48:00,63.0,57.0,0.00,SSW,200,0.0,0.0,81,0.00,,---,0.00,VWS V13.01,2013-10-04 05:48:00,
2013-10-04 01:53:00,63.0,57.4,0.00,SSW,200,0.0,0.0,82,0.00,,---,0.00,VWS V13.01,2013-10-04 05:53:00,
2013-10-04 01:58:00,63.0,57.4,0.00,SSW,200,0.0,0.0,82,0.00,,---,0.00,VWS V13.01,2013-10-04 05:58:00,
2013-10-04 02:03:00,62.8,57.2,0.00,SSW,200,0.0,0.0,82,0.00,,---,0.00,VWS V13.01,2013-10-04 06:03:00,
2013-10-04 02:08:00,62.6,56.7,0.00,SSW,200,0.0,0.0,81,0.00,,---,0.00,VWS V13.01,2013-10-04 06:08:00,
2013-10-04 02:13:00,62.6,56.7,0.00,SSW,200,0.0,0.0,81,0.00,,---,0.00,VWS V13.01,2013-10-04 06:13:00,
2013-10-04 02:18:00,62.4,56.9,0.00,SSW,200,0.0,0.0,82,0.00,,---,0.00,VWS V13.01,2013-10-04 06:18:00,
2013-10-04 02:23:00,62.2,56.7,0.00,SSW,200,0.0,0.0,82,0.00,,---,0.00,VWS V13.01,2013-10-04 06:23:00,
2013-10-04 02:28:00,62.2,56.7,0.00,SSW,200,0.0,0.0,82,0.00,,---,0.00,VWS V13.01,2013-10-04 06:28:00,
2013-10-04 02:33:00,62.1,56.5,0.00,SSW,200,0.0,0.0,82,0.00,,---,0.00,VWS V13.01,2013-10-04 06:33:00,
2013-10-04 02:38:00,61.9,56.3,0.00,SSW,200,0.0,0.0,82,0.00,,---,0.00,VWS V13.01,2013-10-04 06:38:00,
2013-10-04 02:43:00,61.9,56.3,0.00,SSW,200,0.0,0.0,82,0.00,,---,0.00,VWS V13.01,2013-10-04 06:43:00,
2013-10-04 02:48:00,61.9,56.3,0.00,SSW,200,0.0,0.0,82,0.00,,---,0.00,VWS V13.01,2013-10-04 06:48:00,
2013-10-04 02:53:00,61.9,56.7,0.00,SSW,200,0.0,0.0,83,0.00,,---,0.00,VWS V13.01,2013-10-04 06:53:00,
2013-10-04 02:58:00,61.7,56.5,0.00,SSW,200,0.0,0.0,83,0.00,,---,0.00,VWS V13.01,2013-10-04 06:58:00,
2013-10-04 03:04:00,61.7,56.5,0.00,SSW,200,0.0,0.0,83,0.00,,---,0.00,VWS V13.01,2013-10-04 07:04:00,
2013-10-04 03:09:00,61.5,56.3,0.00,SSW,200,0.0,0.0,83,0.00,,---,0.00,VWS V13.01,2013-10-04 07:09:00,
2013-10-04 03:14:00,61.5,56.0,0.00,SSW,200,0.0,0.0,82,0.00,,---,0.00,VWS V13.01,2013-10-04 07:14:00,
2013-10-04 03:19:00,61.3,55.8,0.00,SSW,200,0.0,0.0,82,0.00,,---,0.00,VWS V13.01,2013-10-04 07:19:00,
2013-10-04 03:24:00,61.3,56.1,0.00,SSW,200,0.0,0.0,83,0.00,,---,0.00,VWS V13.01,2013-10-04 07:24:00,
2013-10-04 03:29:00,61.3,56.1,0.00,SSW,200,0.0,0.0,83,0.00,,---,0.00,VWS V13.01,2013-10-04 07:29:00,
2013-10-04 03:34:00,61.2,56.0,0.00,SSW,200,0.0,0.0,83,0.00,,---,0.00,VWS V13.01,2013-10-04 07:34:00,
2013-10-04 03:39:00,61.2,56.0,0.00,SSW,200,0.0,0.0,83,0.00,,---,0.00,VWS V13.01,2013-10-04 07:39:00,
2013-10-04 03:44:00,61.2,56.0,0.00,SSW,200,0.0,0.0,83,0.00,,---,0.00,VWS V13.01,2013-10-04 07:44:00,
2013-10-04 03:49:00,61.2,56.0,0.00,SSW,200,0.0,0.0,83,0.00,,---,0.00,VWS V13.01,2013-10-04 07:49:00,
2013-10-04 03:54:00,61.2,56.0,0.00,SSW,200,0.0,0.0,83,0.00,,---,0.00,VWS V13.01,2013-10-04 07:54:00,
2013-10-04 03:59:00,61.2,56.3,0.00,SSW,200,0.0,0.0,84,0.00,,---,0.00,VWS V13.01,2013-10-04 07:59:00,
2013-10-04 04:04:00,61.2,56.0,0.00,SSW,200,0.0,0.0,83,0.00,,---,0.00,VWS V13.01,2013-10-04 08:04:00,
2013-10-04 04:10:00,61.2,56.0,0.00,SSW,200,0.0,0.0,83,0.00,,---,0.00,VWS V13.01,2013-10-04 08:10:00,
2013-10-04 04:15:00,61.0,55.8,0.00,SSW,200,0.0,0.0,83,0.00,,---,0.00,VWS V13.01,2013-10-04 08:15:00,
2013-10-04 04:20:00,61.0,55.8,0.00,SSW,200,0.0,0.0,83,0.00,,---,0.00,VWS V13.01,2013-10-04 08:20:00,
2013-10-04 04:25:00,61.0,56.1,0.00,SSW,200,0.0,0.0,84,0.00,,---,0.00,VWS V13.01,2013-10-04 08:25:00,
2013-10-04 04:30:00,60.8,55.9,0.00,SSW,200,0.0,0.0,84,0.00,,---,0.00,VWS V13.01,2013-10-04 08:30:00,
2013-10-04 04:35:00,60.8,55.9,0.00,SSW,200,0.0,0.0,84,0.00,,---,0.00,VWS V13.01,2013-10-04 08:35:00,
2013-10-04 04:40:00,60.6,55.8,0.00,SSW,200,0.0,0.0,84,0.00,,---,0.00,VWS V13.01,2013-10-04 08:40:00,
2013-10-04 04:45:00,60.6,55.8,0.00,SSW,200,0.0,0.0,84,0.00,,---,0.00,VWS V13.01,2013-10-04 08:45:00,
2013-10-04 04:50:00,60.6,55.8,0.00,SSW,200,0.0,0.0,84,0.00,,---,0.00,VWS V13.01,2013-10-04 08:50:00,
2013-10-04 04:55:00,60.6,55.8,0.00,SSW,200,0.0,0.0,84,0.00,,---,0.00,VWS V13.01,2013-10-04 08:55:00,
2013-10-04 05:00:00,60.4,55.6,0.00,SSW,200,0.0,0.0,84,0.00,,---,0.00,VWS V13.01,2013-10-04 09:00:00,
2013-10-04 05:05:00,60.4,55.6,0.00,SSW,200,0.0,0.0,84,0.00,,---,0.00,VWS V13.01,2013-10-04 09:05:00,
2013-10-04 05:11:00,60.4,55.6,0.00,SSW,200,0.0,0.0,84,0.00,,---,0.00,VWS V13.01,2013-10-04 09:11:00,
2013-10-04 05:16:00,60.4,55.9,0.00,SSW,200,0.0,0.0,85,0.00,,---,0.00,VWS V13.01,2013-10-04 09:16:00,
2013-10-04 05:21:00,60.3,55.7,0.00,SSW,200,0.0,0.0,85,0.00,,---,0.00,VWS V13.01,2013-10-04 09:21:00,
2013-10-04 05:26:00,60.3,55.7,0.00,SSW,200,0.0,0.0,85,0.00,,---,0.00,VWS V13.01,2013-10-04 09:26:00,
2013-10-04 05:31:00,60.1,55.6,0.00,SSW,200,0.0,0.0,85,0.00,,---,0.00,VWS V13.01,2013-10-04 09:31:00,
2013-10-04 05:36:00,60.1,55.6,0.00,SSW,200,0.0,0.0,85,0.00,,---,0.00,VWS V13.01,2013-10-04 09:36:00,
2013-10-04 05:41:00,60.1,55.6,0.00,SSW,200,0.0,0.0,85,0.00,,---,0.00,VWS V13.01,2013-10-04 09:41:00,
2013-10-04 05:46:00,59.9,55.4,0.00,SSW,200,0.0,0.0,85,0.00,,---,0.00,VWS V13.01,2013-10-04 09:46:00,
2013-10-04 05:52:00,59.9,55.4,0.00,SSW,200,0.0,0.0,85,0.00,,---,0.00,VWS V13.01,2013-10-04 09:52:00,
2013-10-04 05:57:00,59.7,55.2,0.00,SSW,200,0.0,0.0,85,0.00,,---,0.00,VWS V13.01,2013-10-04 09:57:00,
2013-10-04 06:02:00,59.7,55.2,0.00,SSW,200,0.0,0.0,85,0.00,,---,0.00,VWS V13.01,2013-10-04 10:02:00,
2013-10-04 06:07:00,59.7,55.2,0.00,SSW,200,0.0,0.0,85,0.00,,---,0.00,VWS V13.01,2013-10-04 10:07:00,
2013-10-04 06:12:00,59.7,55.2,0.00,SSW,200,0.0,0.0,85,0.00,,---,0.00,VWS V13.01,2013-10-04 10:12:00,
2013-10-04 06:17:00,59.7,55.2,0.00,SSW,200,0.0,0.0,85,0.00,,---,0.00,VWS V13.01,2013-10-04 10:17:00,
2013-10-04 06:22:00,59.5,55.0,0.00,SSW,200,0.0,0.0,85,0.00,,---,0.00,VWS V13.01,2013-10-04 10:22:00,
2013-10-04 06:27:00,59.5,55.3,0.00,SSW,200,0.0,0.0,86,0.00,,---,0.00,VWS V13.01,2013-10-04 10:27:00,
2013-10-04 06:32:00,59.5,55.3,0.00,SSW,200,0.0,0.0,86,0.00,,---,0.00,VWS V13.01,2013-10-04 10:32:00,
2013-10-04 06:37:00,59.5,55.3,0.00,SSW,200,0.0,0.0,86,0.00,,---,0.00,VWS V13.01,2013-10-04 10:37:00,
2013-10-04 06:43:00,59.4,54.9,0.00,SSW,200,0.0,0.0,85,0.00,,---,0.00,VWS V13.01,2013-10-04 10:43:00,
2013-10-04 06:48:00,59.4,55.2,0.00,SSW,200,0.0,0.0,86,0.00,,---,0.00,VWS V13.01,2013-10-04 10:48:00,
2013-10-04 06:53:00,59.4,55.2,0.00,SSW,200,0.0,0.0,86,0.00,,---,0.00,VWS V13.01,2013-10-04 10:53:00,
2013-10-04 06:58:00,59.4,55.2,0.00,SSW,200,0.0,0.0,86,0.00,,---,0.00,VWS V13.01,2013-10-04 10:58:00,
2013-10-04 07:03:00,59.4,55.2,0.00,SSW,200,0.0,0.0,86,0.00,,---,0.00,VWS V13.01,2013-10-04 11:03:00,
2013-10-04 07:08:00,59.2,55.0,0.00,SSW,200,0.0,0.0,86,0.00,,---,0.00,VWS V13.01,2013-10-04 11:08:00,
2013-10-04 07:13:00,59.2,55.0,0.00,SSW,200,0.0,0.0,86,0.00,,---,0.00,VWS V13.01,2013-10-04 11:13:00,
2013-10-04 07:19:00,59.2,55.0,0.00,SSW,200,0.0,0.0,86,0.00,,---,0.00,VWS V13.01,2013-10-04 11:19:00,
2013-10-04 07:24:00,59.2,55.0,0.00,SSW,201,0.0,0.0,86,0.00,,---,0.00,VWS V13.01,2013-10-04 11:24:00,
2013-10-04 07:29:00,59.2,55.0,0.00,SSW,201,0.0,0.0,86,0.00,,---,0.00,VWS V13.01,2013-10-04 11:29:00,
2013-10-04 07:34:00,59.0,54.8,0.00,SSW,201,0.0,0.0,86,0.00,,---,0.00,VWS V13.01,2013-10-04 11:34:00,
2013-10-04 07:39:00,59.0,54.8,0.00,SSW,200,0.0,0.0,86,0.00,,---,0.00,VWS V13.01,2013-10-04 11:39:00,
2013-10-04 07:44:00,59.2,55.3,0.00,SSW,200,0.0,0.0,87,0.00,,---,0.00,VWS V13.01,2013-10-04 11:44:00,
2013-10-04 07:49:00,59.2,55.3,0.00,SSW,201,0.0,0.0,87,0.00,,---,0.00,VWS V13.01,2013-10-04 11:49:00,
2013-10-04 07:54:00,59.2,55.3,0.00,SSW,201,0.0,0.0,87,0.00,,---,0.00,VWS V13.01,2013-10-04 11:54:00,
2013-10-04 07:59:00,59.4,55.5,0.00,SSW,201,0.0,0.0,87,0.00,,---,0.00,VWS V13.01,2013-10-04 11:59:00,
2013-10-04 08:04:00,59.4,55.5,0.00,SSW,200,0.0,0.0,87,0.00,,---,0.00,VWS V13.01,2013-10-04 12:04:00,
2013-10-04 08:09:00,59.4,55.5,0.00,SSW,200,0.0,0.0,87,0.00,,---,0.00,VWS V13.01,2013-10-04 12:09:00,
2013-10-04 08:15:00,59.5,55.7,0.00,SSW,201,0.0,0.0,87,0.00,,---,0.00,VWS V13.01,2013-10-04 12:15:00,
2013-10-04 08:20:00,59.7,56.2,0.00,SSW,200,0.0,0.0,88,0.00,,---,0.00,VWS V13.01,2013-10-04 12:20:00,
2013-10-04 08:25:00,59.7,56.2,0.00,SSW,201,0.0,0.0,88,0.00,,---,0.00,VWS V13.01,2013-10-04 12:25:00,
2013-10-04 08:30:00,60.1,56.5,0.00,SSW,201,0.0,0.0,88,0.00,,---,0.00,VWS V13.01,2013-10-04 12:30:00,
2013-10-04 08:35:00,60.4,56.9,0.00,SSW,200,0.0,0.0,88,0.00,,---,0.00,VWS V13.01,2013-10-04 12:35:00,
2013-10-04 08:40:00,60.8,57.2,0.00,SSW,201,0.0,0.0,88,0.00,,---,0.00,VWS V13.01,2013-10-04 12:40:00,
2013-10-04 08:45:00,61.2,57.9,0.00,SSW,200,0.0,0.0,89,0.00,,---,0.00,VWS V13.01,2013-10-04 12:45:00,
2013-10-04 08:50:00,61.7,58.4,0.00,SSW,200,0.0,0.0,89,0.00,,---,0.00,VWS V13.01,2013-10-04 12:50:00,
2013-10-04 08:55:00,62.2,59.3,0.00,SSW,201,0.0,0.0,90,0.00,,---,0.00,VWS V13.01,2013-10-04 12:55:00,
2013-10-04 09:00:00,63.0,59.7,0.00,SSW,200,0.0,0.0,89,0.00,,---,0.00,VWS V13.01,2013-10-04 13:00:00,
2013-10-04 09:05:00,63.5,60.5,0.00,SSW,201,0.0,0.0,90,0.00,,---,0.00,VWS V13.01,2013-10-04 13:05:00,
2013-10-04 09:10:00,64.0,60.7,0.00,SSW,201,0.0,0.0,89,0.00,,---,0.00,VWS V13.01,2013-10-04 13:10:00,
2013-10-04 09:16:00,64.6,61.3,0.00,SSW,200,0.0,0.0,89,0.00,,---,0.00,VWS V13.01,2013-10-04 13:16:00,
2013-10-04 09:21:00,64.9,61.3,0.00,SSW,201,0.0,0.0,88,0.00,,---,0.00,VWS V13.01,2013-10-04 13:21:00,
2013-10-04 09:26:00,65.3,61.7,0.00,SSW,201,0.0,0.0,88,0.00,,---,0.00,VWS V13.01,2013-10-04 13:26:00,
2013-10-04 09:31:00,65.8,62.2,0.00,SSW,201,0.0,0.0,88,0.00,,---,0.00,VWS V13.01,2013-10-04 13:31:00,
2013-10-04 09:36:00,66.4,62.4,0.00,SSW,212,0.0,0.0,87,0.00,,---,0.00,VWS V13.01,2013-10-04 13:36:00,
2013-10-04 09:41:00,67.1,63.1,0.00,South,182,0.0,0.0,87,0.00,,---,0.00,VWS V13.01,2013-10-04 13:41:00,
2013-10-04 09:46:00,67.6,63.3,0.00,South,182,0.0,0.0,86,0.00,,---,0.00,VWS V13.01,2013-10-04 13:46:00,
2013-10-04 09:51:00,68.2,63.5,0.00,South,176,0.0,0.0,85,0.00,,---,0.00,VWS V13.01,2013-10-04 13:51:00,
2013-10-04 09:56:00,68.7,63.3,0.00,South,169,0.0,0.0,83,0.00,,---,0.00,VWS V13.01,2013-10-04 13:56:00,
2013-10-04 10:01:00,69.4,63.7,0.00,South,169,0.0,0.0,82,0.00,,---,0.00,VWS V13.01,2013-10-04 14:01:00,
2013-10-04 10:06:00,69.8,63.4,0.00,South,169,0.0,0.0,80,0.00,,---,0.00,VWS V13.01,2013-10-04 14:06:00,
2013-10-04 10:11:00,70.5,63.3,0.00,South,169,0.0,0.0,78,0.00,,---,0.00,VWS V13.01,2013-10-04 14:11:00,
2013-10-04 10:16:00,71.2,63.7,0.00,South,169,0.0,0.0,77,0.00,,---,0.00,VWS V13.01,2013-10-04 14:16:00,
2013-10-04 10:22:00,71.6,63.3,0.00,SSE,165,0.0,0.0,75,0.00,,---,0.00,VWS V13.01,2013-10-04 14:22:00,
2013-10-04 10:26:00,72.1,63.4,0.00,WSW,248,0.0,0.0,74,0.00,,---,0.00,VWS V13.01,2013-10-04 14:26:00,
2013-10-04 10:31:00,72.7,62.7,0.00,WSW,248,0.0,0.0,71,0.00,,---,0.00,VWS V13.01,2013-10-04 14:31:00,
2013-10-04 10:37:00,73.2,62.0,0.00,WSW,237,0.0,3.1,68,0.00,,---,0.00,VWS V13.01,2013-10-04 14:37:00,
2013-10-04 10:42:00,73.8,61.3,0.00,WSW,237,0.0,0.0,65,0.00,,---,0.00,VWS V13.01,2013-10-04 14:42:00,
2013-10-04 10:47:00,74.3,62.2,0.00,WSW,237,0.0,0.0,66,0.00,,---,0.00,VWS V13.01,2013-10-04 14:47:00,
2013-10-04 10:52:00,75.0,62.0,0.00,WSW,237,0.0,0.0,64,0.00,,---,0.00,VWS V13.01,2013-10-04 14:52:00,
2013-10-04 10:57:00,75.7,62.3,0.00,WSW,237,0.0,0.0,63,0.00,,---,0.00,VWS V13.01,2013-10-04 14:57:00,
2013-10-04 11:02:00,76.1,60.8,0.00,SSE,155,0.0,0.0,59,0.00,,---,0.00,VWS V13.01,2013-10-04 15:02:00,
2013-10-04 11:07:00,76.8,61.9,0.00,WNW,282,0.0,0.0,60,0.00,,---,0.00,VWS V13.01,2013-10-04 15:07:00,
2013-10-04 11:12:00,77.4,60.0,0.00,South,185,0.0,4.0,55,0.00,,---,0.00,VWS V13.01,2013-10-04 15:12:00,
2013-10-04 11:17:00,78.1,61.1,0.00,WNW,295,0.0,4.0,56,0.00,,---,0.00,VWS V13.01,2013-10-04 15:17:00,
2013-10-04 11:18:00,78.1,60.6,0.00,NNW,328,2.2,4.0,55,0.00,,---,0.00,VWS V13.01,2013-10-04 15:18:00,
2013-10-04 11:23:00,78.6,57.9,0.00,East,97,0.0,0.0,49,0.00,,---,0.00,VWS V13.01,2013-10-04 15:23:00,
2013-10-04 11:28:00,79.5,59.3,0.00,SSE,151,0.0,0.0,50,0.00,,---,0.00,VWS V13.01,2013-10-04 15:28:00,
2013-10-04 11:33:00,80.1,58.6,0.00,WNW,286,0.0,3.6,48,0.00,,---,0.00,VWS V13.01,2013-10-04 15:33:00,
2013-10-04 11:38:00,80.8,57.5,0.00,WNW,298,0.0,3.6,45,0.00,,---,0.00,VWS V13.01,2013-10-04 15:38:00,
2013-10-04 11:43:00,81.1,57.2,0.00,NNW,338,2.2,3.1,44,0.00,,---,0.00,VWS V13.01,2013-10-04 15:43:00,
2013-10-04 11:48:00,81.5,58.1,0.00,NNW,338,0.0,3.1,45,0.00,,---,0.00,VWS V13.01,2013-10-04 15:48:00,
2013-10-04 11:53:00,82.0,58.0,0.00,NW,305,0.0,3.1,44,0.00,,---,0.00,VWS V13.01,2013-10-04 15:53:00,
2013-10-04 11:58:00,82.4,55.7,0.00,North,357,3.6,4.0,40,0.00,,---,0.00,VWS V13.01,2013-10-04 15:58:00,
2013-10-04 12:04:00,82.9,56.2,0.00,NNE,31,0.0,0.0,40,0.00,,---,0.00,VWS V13.01,2013-10-04 16:04:00,
2013-10-04 12:09:00,83.3,55.8,0.00,WNW,292,2.7,3.6,39,0.00,,---,0.00,VWS V13.01,2013-10-04 16:09:00,
2013-10-04 12:14:00,83.7,55.4,0.00,NNW,339,0.0,3.6,38,0.00,,---,0.00,VWS V13.01,2013-10-04 16:14:00,
2013-10-04 12:19:00,84.0,56.4,0.00,NNE,17,3.1,3.6,39,0.00,,---,0.00,VWS V13.01,2013-10-04 16:19:00,
2013-10-04 12:24:00,84.6,56.2,0.00,WNW,300,2.7,3.6,38,0.00,,---,0.00,VWS V13.01,2013-10-04 16:24:00,
2013-10-04 12:29:00,84.6,54.7,0.00,North,353,4.0,4.9,36,0.00,,---,0.00,VWS V13.01,2013-10-04 16:29:00,
2013-10-04 12:34:00,84.7,53.3,0.00,NNW,346,3.1,5.4,34,0.00,,---,0.00,VWS V13.01,2013-10-04 16:34:00,
2013-10-04 12:39:00,85.1,53.6,0.00,NNW,343,2.7,5.4,34,0.00,,---,0.00,VWS V13.01,2013-10-04 16:39:00,
2013-10-04 12:45:00,85.1,52.0,0.00,ENE,78,0.0,3.1,32,0.00,,---,0.00,VWS V13.01,2013-10-04 16:45:00,
2013-10-04 12:50:00,85.5,53.9,0.00,NE,42,3.6,3.6,34,0.00,,---,0.00,VWS V13.01,2013-10-04 16:50:00,
2013-10-04 12:55:00,86.0,53.6,0.00,NNE,25,0.0,4.0,33,0.00,,---,0.00,VWS V13.01,2013-10-04 16:55:00,
2013-10-04 13:00:00,86.4,52.2,0.00,NW,317,3.6,3.6,31,0.00,,---,0.00,VWS V13.01,2013-10-04 17:00:00,
2013-10-04 13:05:00,86.0,52.7,0.00,WNW,303,0.0,3.6,32,0.00,,---,0.00,VWS V13.01,2013-10-04 17:05:00,
2013-10-04 13:10:00,86.2,52.9,0.00,WNW,294,2.7,3.6,32,0.00,,---,0.00,VWS V13.01,2013-10-04 17:10:00,
2013-10-04 13:15:00,86.5,54.9,0.00,SSW,192,3.6,3.6,34,0.00,,---,0.00,VWS V13.01,2013-10-04 17:15:00,
2013-10-04 13:20:00,86.9,53.5,0.00,North,357,0.0,0.0,32,0.00,,---,0.00,VWS V13.01,2013-10-04 17:20:00,
2013-10-04 13:25:00,87.3,53.0,0.00,North,357,0.0,3.6,31,0.00,,---,0.00,VWS V13.01,2013-10-04 17:25:00,
2013-10-04 13:30:00,86.5,52.3,0.00,SE,146,0.0,3.6,31,0.00,,---,0.00,VWS V13.01,2013-10-04 17:30:00,
2013-10-04 13:35:00,84.9,51.8,0.00,SE,146,0.0,3.6,32,0.00,,---,0.00,VWS V13.01,2013-10-04 17:35:00,
2013-10-04 14:01:00,87.3,52.1,0.00,ENE,77,0.0,2.2,30,0.00,,---,0.00,VWS V13.01,2013-10-04 18:01:00,
2013-10-04 14:06:00,88.0,51.8,0.00,WNW,298,2.2,4.9,29,0.00,,---,0.00,VWS V13.01,2013-10-04 18:06:00,
2013-10-04 14:11:00,88.5,52.2,0.00,NE,43,2.2,5.8,29,0.00,,---,0.00,VWS V13.01,2013-10-04 18:11:00,
2013-10-04 14:16:00,89.1,51.8,0.00,NNW,333,3.1,5.8,28,0.00,,---,0.00,VWS V13.01,2013-10-04 18:16:00,
2013-10-04 14:21:00,88.0,51.8,0.00,North,0,0.0,2.2,29,0.00,,---,0.00,VWS V13.01,2013-10-04 18:21:00,
2013-10-04 14:26:00,86.4,51.3,0.00,NNE,24,2.2,3.6,30,0.00,,---,0.00,VWS V13.01,2013-10-04 18:26:00,
2013-10-04 14:31:00,84.6,51.5,0.00,NNE,24,0.0,3.6,32,0.00,,---,0.00,VWS V13.01,2013-10-04 18:31:00,
2013-10-04 14:36:00,82.8,55.3,0.00,NNE,24,0.0,3.6,39,0.00,,---,0.00,VWS V13.01,2013-10-04 18:36:00,
2013-10-04 14:41:00,81.1,55.9,0.00,NNE,24,0.0,0.0,42,0.00,,---,0.00,VWS V13.01,2013-10-04 18:41:00,
2013-10-04 14:46:00,81.9,59.7,0.00,NNE,24,0.0,0.0,47,0.00,,---,0.00,VWS V13.01,2013-10-04 18:46:00,
2013-10-04 14:51:00,82.9,60.0,0.00,NNE,24,0.0,0.0,46,0.00,,---,0.00,VWS V13.01,2013-10-04 18:51:00,
2013-10-04 14:57:00,82.8,58.7,0.00,NNE,24,0.0,0.0,44,0.00,,---,0.00,VWS V13.01,2013-10-04 18:57:00,
2013-10-04 15:02:00,82.8,58.7,0.00,NNE,24,0.0,0.0,44,0.00,,---,0.00,VWS V13.01,2013-10-04 19:02:00,
2013-10-04 15:07:00,83.8,59.0,0.00,NNE,24,0.0,0.0,43,0.00,,---,0.00,VWS V13.01,2013-10-04 19:07:00,
2013-10-04 15:12:00,84.0,57.8,0.00,NNE,24,0.0,0.0,41,0.00,,---,0.00,VWS V13.01,2013-10-04 19:12:00,
2013-10-04 15:17:00,84.7,59.8,0.00,NNE,24,0.0,0.0,43,0.00,,---,0.00,VWS V13.01,2013-10-04 19:17:00,
2013-10-04 15:22:00,85.8,58.0,0.00,WSW,239,0.0,0.0,39,0.00,,---,0.00,VWS V13.01,2013-10-04 19:22:00,
2013-10-04 15:27:00,86.9,57.5,0.00,SSW,210,3.6,3.6,37,0.00,,---,0.00,VWS V13.01,2013-10-04 19:27:00,
2013-10-04 15:32:00,87.4,54.0,0.00,WSW,241,0.0,3.6,32,0.00,,---,0.00,VWS V13.01,2013-10-04 19:32:00,
2013-10-04 15:38:00,87.8,52.5,0.00,West,275,0.0,3.6,30,0.00,,---,0.00,VWS V13.01,2013-10-04 19:38:00,
2013-10-04 15:43:00,88.0,52.7,0.00,West,275,0.0,0.0,30,0.00,,---,0.00,VWS V13.01,2013-10-04 19:43:00,
2013-10-04 15:48:00,88.2,53.7,0.00,West,275,0.0,0.0,31,0.00,,---,0.00,VWS V13.01,2013-10-04 19:48:00,
2013-10-04 15:53:00,88.2,55.5,0.00,West,267,0.0,0.0,33,0.00,,---,0.00,VWS V13.01,2013-10-04 19:53:00,
2013-10-04 15:58:00,88.2,52.8,0.00,NW,316,0.0,0.0,30,0.00,,---,0.00,VWS V13.01,2013-10-04 19:58:00,
2013-10-04 16:03:00,88.0,52.7,0.00,WNW,290,0.0,0.0,30,0.00,,---,0.00,VWS V13.01,2013-10-04 20:03:00,
2013-10-04 16:08:00,87.6,54.2,0.00,WNW,290,0.0,0.0,32,0.00,,---,0.00,VWS V13.01,2013-10-04 20:08:00,
2013-10-04 16:13:00,87.1,53.7,0.00,West,272,0.0,0.0,32,0.00,,---,0.00,VWS V13.01,2013-10-04 20:13:00,
2013-10-04 16:18:00,86.5,51.5,0.00,West,272,0.0,0.0,30,0.00,,---,0.00,VWS V13.01,2013-10-04 20:18:00,
2013-10-04 16:23:00,85.8,53.4,0.00,SW,234,0.0,0.0,33,0.00,,---,0.00,VWS V13.01,2013-10-04 20:23:00,
2013-10-04 16:28:00,85.3,53.0,0.00,SW,234,0.0,0.0,33,0.00,,---,0.00,VWS V13.01,2013-10-04 20:28:00,
2013-10-04 16:33:00,84.6,53.1,0.00,WSW,247,0.0,0.0,34,0.00,,---,0.00,VWS V13.01,2013-10-04 20:33:00,
2013-10-04 16:38:00,84.2,52.8,0.00,WSW,247,0.0,0.0,34,0.00,,---,0.00,VWS V13.01,2013-10-04 20:38:00,
2013-10-04 16:43:00,83.5,52.2,0.00,WSW,245,0.0,0.0,34,0.00,,---,0.00,VWS V13.01,2013-10-04 20:43:00,
2013-10-04 16:48:00,83.1,51.9,0.00,West,271,0.0,0.0,34,0.00,,---,0.00,VWS V13.01,2013-10-04 20:48:00,
2013-10-04 16:53:00,82.9,50.1,0.00,SW,232,0.0,0.0,32,0.00,,---,0.00,VWS V13.01,2013-10-04 20:53:00,
2013-10-04 16:59:00,83.1,51.1,0.00,South,184,2.7,3.6,33,0.00,,---,0.00,VWS V13.01,2013-10-04 20:59:00,
2013-10-04 17:04:00,82.9,51.7,0.00,South,184,0.0,2.2,34,0.00,,---,0.00,VWS V13.01,2013-10-04 21:04:00,
2013-10-04 17:09:00,82.6,53.0,0.00,SE,140,0.0,2.2,36,0.00,,---,0.00,VWS V13.01,2013-10-04 21:09:00,
2013-10-04 17:14:00,82.2,51.1,0.00,SSE,166,0.0,2.7,34,0.00,,---,0.00,VWS V13.01,2013-10-04 21:14:00,
2013-10-04 17:19:00,82.0,51.7,0.00,SSE,166,0.0,2.7,35,0.00,,---,0.00,VWS V13.01,2013-10-04 21:19:00,
2013-10-04 17:24:00,81.5,52.7,0.00,SSE,166,0.0,0.0,37,0.00,,---,0.00,VWS V13.01,2013-10-04 21:24:00,
2013-10-04 17:29:00,81.3,54.0,0.00,SSE,166,0.0,0.0,39,0.00,,---,0.00,VWS V13.01,2013-10-04 21:29:00,
2013-10-04 17:34:00,80.8,54.9,0.00,SSE,166,0.0,0.0,41,0.00,,---,0.00,VWS V13.01,2013-10-04 21:34:00,
2013-10-04 17:39:00,80.4,55.2,0.00,SSE,166,0.0,0.0,42,0.00,,---,0.00,VWS V13.01,2013-10-04 21:39:00,
2013-10-04 17:44:00,80.2,55.1,0.00,SSE,166,0.0,0.0,42,0.00,,---,0.00,VWS V13.01,2013-10-04 21:44:00,
2013-10-04 17:49:00,80.1,54.9,0.00,SSE,166,0.0,0.0,42,0.00,,---,0.00,VWS V13.01,2013-10-04 21:49:00,
2013-10-04 17:54:00,79.9,55.4,0.00,SSE,166,0.0,0.0,43,0.00,,---,0.00,VWS V13.01,2013-10-04 21:54:00,
2013-10-04 18:00:00,79.5,55.7,0.00,SSE,166,0.0,0.0,44,0.00,,---,0.00,VWS V13.01,2013-10-04 22:00:00,
2013-10-04 18:05:00,79.2,55.4,0.00,SSE,166,0.0,0.0,44,0.00,,---,0.00,VWS V13.01,2013-10-04 22:05:00,
2013-10-04 18:10:00,78.6,55.5,0.00,SSE,166,0.0,0.0,45,0.00,,---,0.00,VWS V13.01,2013-10-04 22:10:00,
2013-10-04 18:15:00,78.4,56.0,0.00,SSE,166,0.0,0.0,46,0.00,,---,0.00,VWS V13.01,2013-10-04 22:15:00,
2013-10-04 18:20:00,78.3,56.4,0.00,SSE,166,0.0,0.0,47,0.00,,---,0.00,VWS V13.01,2013-10-04 22:20:00,
2013-10-04 18:25:00,77.7,56.5,0.00,SSE,166,0.0,0.0,48,0.00,,---,0.00,VWS V13.01,2013-10-04 22:25:00,
2013-10-04 18:30:00,77.4,56.7,0.00,SSE,165,0.0,0.0,49,0.00,,---,0.00,VWS V13.01,2013-10-04 22:30:00,
2013-10-04 18:35:00,77.0,57.0,0.00,SSE,165,0.0,0.0,50,0.00,,---,0.00,VWS V13.01,2013-10-04 22:35:00,
2013-10-04 18:40:00,76.8,57.9,0.00,SSE,165,0.0,0.0,52,0.00,,---,0.00,VWS V13.01,2013-10-04 22:40:00,
2013-10-04 18:45:00,76.5,58.1,0.00,SSE,165,0.0,0.0,53,0.00,,---,0.00,VWS V13.01,2013-10-04 22:45:00,
2013-10-04 18:50:00,76.1,58.3,0.00,SSE,165,0.0,0.0,54,0.00,,---,0.00,VWS V13.01,2013-10-04 22:50:00,
2013-10-04 18:55:00,75.7,58.4,0.00,SSE,165,0.0,0.0,55,0.00,,---,0.00,VWS V13.01,2013-10-04 22:55:00,
2013-10-04 19:00:00,75.6,58.8,0.00,SSE,165,0.0,0.0,56,0.00,,---,0.00,VWS V13.01,2013-10-04 23:00:00,
2013-10-04 19:05:00,75.2,59.4,0.00,SSE,165,0.0,0.0,58,0.00,,---,0.00,VWS V13.01,2013-10-04 23:05:00,
2013-10-04 19:10:00,75.0,59.7,0.00,SSE,165,0.0,0.0,59,0.00,,---,0.00,VWS V13.01,2013-10-04 23:10:00,
2013-10-04 19:15:00,74.8,60.5,0.00,SSE,165,0.0,0.0,61,0.00,,---,0.00,VWS V13.01,2013-10-04 23:15:00,
2013-10-04 19:20:00,74.7,60.8,0.00,SSE,165,0.0,0.0,62,0.00,,---,0.00,VWS V13.01,2013-10-04 23:20:00,
2013-10-04 19:25:00,74.5,60.6,0.00,SSE,165,0.0,0.0,62,0.00,,---,0.00,VWS V13.01,2013-10-04 23:25:00,
2013-10-04 19:30:00,74.1,60.7,0.00,SSE,165,0.0,0.0,63,0.00,,---,0.00,VWS V13.01,2013-10-04 23:30:00,
2013-10-04 19:35:00,73.9,61.0,0.00,SSE,165,0.0,0.0,64,0.00,,---,0.00,VWS V13.01,2013-10-04 23:35:00,
2013-10-04 19:40:00,73.6,60.7,0.00,SSE,165,0.0,0.0,64,0.00,,---,0.00,VWS V13.01,2013-10-04 23:40:00,
2013-10-04 19:45:00,73.2,60.8,0.00,SSE,165,0.0,0.0,65,0.00,,---,0.00,VWS V13.01,2013-10-04 23:45:00,
2013-10-04 19:50:00,72.9,60.8,0.00,SSE,165,0.0,0.0,66,0.00,,---,0.00,VWS V13.01,2013-10-04 23:50:00,
2013-10-04 19:55:00,72.5,60.5,0.00,SSE,165,0.0,0.0,66,0.00,,---,0.00,VWS V13.01,2013-10-04 23:55:00,
2013-10-04 20:00:00,72.3,60.8,0.00,SSE,165,0.0,0.0,67,0.00,,---,0.00,VWS V13.01,2013-10-05 00:00:00,
2013-10-04 20:05:00,72.3,60.8,0.00,SSE,165,0.0,0.0,67,0.00,,---,0.00,VWS V13.01,2013-10-05 00:05:00,
2013-10-04 20:10:00,72.1,61.0,0.00,SSE,165,0.0,0.0,68,0.00,,---,0.00,VWS V13.01,2013-10-05 00:10:00,
2013-10-04 20:15:00,71.8,60.7,0.00,SSE,165,0.0,0.0,68,0.00,,---,0.00,VWS V13.01,2013-10-05 00:15:00,
2013-10-04 20:20:00,71.6,60.9,0.00,SSE,165,0.0,0.0,69,0.00,,---,0.00,VWS V13.01,2013-10-05 00:20:00,
2013-10-04 20:25:00,71.6,61.3,0.00,SSE,165,0.0,0.0,70,0.00,,---,0.00,VWS V13.01,2013-10-05 00:25:00,
2013-10-04 20:30:00,71.6,61.3,0.00,SSE,165,0.0,0.0,70,0.00,,---,0.00,VWS V13.01,2013-10-05 00:30:00,
2013-10-04 20:35:00,71.4,61.5,0.00,SSE,165,0.0,0.0,71,0.00,,---,0.00,VWS V13.01,2013-10-05 00:35:00,
2013-10-04 20:40:00,71.2,61.8,0.00,SSE,165,0.0,0.0,72,0.00,,---,0.00,VWS V13.01,2013-10-05 00:40:00,
2013-10-04 20:45:00,71.1,61.6,0.00,SSE,165,0.0,0.0,72,0.00,,---,0.00,VWS V13.01,2013-10-05 00:45:00,
2013-10-04 20:50:00,70.7,60.8,0.00,SSE,165,0.0,0.0,71,0.00,,---,0.00,VWS V13.01,2013-10-05 00:50:00,
2013-10-04 20:55:00,70.7,61.2,0.00,SSE,165,0.0,0.0,72,0.00,,---,0.00,VWS V13.01,2013-10-05 00:55:00,
2013-10-04 21:00:00,70.3,60.9,0.00,SSE,165,0.0,0.0,72,0.00,,---,0.00,VWS V13.01,2013-10-05 01:00:00,
2013-10-04 21:05:00,70.3,60.9,0.00,SSE,165,0.0,0.0,72,0.00,,---,0.00,VWS V13.01,2013-10-05 01:05:00,
2013-10-04 21:10:00,70.2,61.1,0.00,SSE,165,0.0,0.0,73,0.00,,---,0.00,VWS V13.01,2013-10-05 01:10:00,
2013-10-04 21:16:00,70.0,60.9,0.00,SSE,165,0.0,0.0,73,0.00,,---,0.00,VWS V13.01,2013-10-05 01:16:00,
2013-10-04 21:21:00,70.0,61.3,0.00,SSE,165,0.0,0.0,74,0.00,,---,0.00,VWS V13.01,2013-10-05 01:21:00,
2013-10-04 21:26:00,69.8,61.2,0.00,SSE,165,0.0,0.0,74,0.00,,---,0.00,VWS V13.01,2013-10-05 01:26:00,
2013-10-04 21:31:00,69.6,61.0,0.00,SSE,165,0.0,0.0,74,0.00,,---,0.00,VWS V13.01,2013-10-05 01:31:00,
2013-10-04 21:36:00,69.4,61.2,0.00,SSE,165,0.0,0.0,75,0.00,,---,0.00,VWS V13.01,2013-10-05 01:36:00,
2013-10-04 21:41:00,69.4,61.5,0.00,SSE,165,0.0,0.0,76,0.00,,---,0.00,VWS V13.01,2013-10-05 01:41:00,
2013-10-04 21:46:00,69.3,61.4,0.00,SSE,165,0.0,0.0,76,0.00,,---,0.00,VWS V13.01,2013-10-05 01:46:00,
2013-10-04 21:51:00,68.9,61.0,0.00,SSE,165,0.0,0.0,76,0.00,,---,0.00,VWS V13.01,2013-10-05 01:51:00,
2013-10-04 21:56:00,68.7,61.2,0.00,SSE,165,0.0,0.0,77,0.00,,---,0.00,VWS V13.01,2013-10-05 01:56:00,
2013-10-04 22:01:00,68.7,61.2,0.00,SSE,165,0.0,0.0,77,0.00,,---,0.00,VWS V13.01,2013-10-05 02:01:00,
2013-10-04 22:06:00,68.5,61.0,0.00,SSE,165,0.0,0.0,77,0.00,,---,0.00,VWS V13.01,2013-10-05 02:06:00,
2013-10-04 22:11:00,68.5,61.0,0.00,SSE,165,0.0,0.0,77,0.00,,---,0.00,VWS V13.01,2013-10-05 02:11:00,
2013-10-04 22:16:00,68.4,61.2,0.00,SSE,165,0.0,0.0,78,0.00,,---,0.00,VWS V13.01,2013-10-05 02:16:00,
2013-10-04 22:21:00,68.4,61.2,0.00,SSE,165,0.0,0.0,78,0.00,,---,0.00,VWS V13.01,2013-10-05 02:21:00,
2013-10-04 22:26:00,68.2,61.1,0.00,SSE,165,0.0,0.0,78,0.00,,---,0.00,VWS V13.01,2013-10-05 02:26:00,
2013-10-04 22:31:00,68.0,60.5,0.00,SSE,165,0.0,0.0,77,0.00,,---,0.00,VWS V13.01,2013-10-05 02:31:00,
2013-10-04 22:36:00,67.8,61.1,0.00,SSE,165,0.0,0.0,79,0.00,,---,0.00,VWS V13.01,2013-10-05 02:36:00,
2013-10-04 22:41:00,67.8,61.1,0.00,SSE,165,0.0,0.0,79,0.00,,---,0.00,VWS V13.01,2013-10-05 02:41:00,
2013-10-04 22:46:00,67.6,60.9,0.00,SSE,165,0.0,0.0,79,0.00,,---,0.00,VWS V13.01,2013-10-05 02:46:00,
2013-10-04 22:51:00,67.6,60.9,0.00,SSE,165,0.0,0.0,79,0.00,,---,0.00,VWS V13.01,2013-10-05 02:51:00,
2013-10-04 22:56:00,67.6,60.9,0.00,SSE,165,0.0,0.0,79,0.00,,---,0.00,VWS V13.01,2013-10-05 02:56:00,
2013-10-04 23:01:00,67.6,61.3,0.00,SSE,165,0.0,0.0,80,0.00,,---,0.00,VWS V13.01,2013-10-05 03:01:00,
2013-10-04 23:06:00,67.5,61.1,0.00,SSE,165,0.0,0.0,80,0.00,,---,0.00,VWS V13.01,2013-10-05 03:06:00,
2013-10-04 23:11:00,67.3,60.9,0.00,SSE,165,0.0,0.0,80,0.00,,---,0.00,VWS V13.01,2013-10-05 03:11:00,
2013-10-04 23:16:00,67.3,60.9,0.00,SSE,165,0.0,0.0,80,0.00,,---,0.00,VWS V13.01,2013-10-05 03:16:00,
2013-10-04 23:21:00,67.3,61.3,0.00,SSE,165,0.0,0.0,81,0.00,,---,0.00,VWS V13.01,2013-10-05 03:21:00,
2013-10-04 23:26:00,67.1,61.1,0.00,SSE,165,0.0,0.0,81,0.00,,---,0.00,VWS V13.01,2013-10-05 03:26:00,
2013-10-04 23:31:00,67.1,60.7,0.00,SSE,165,0.0,0.0,80,0.00,,---,0.00,VWS V13.01,2013-10-05 03:31:00,
2013-10-04 23:36:00,66.9,60.6,0.00,SSE,165,0.0,0.0,80,0.00,,---,0.00,VWS V13.01,2013-10-05 03:36:00,
2013-10-04 23:41:00,66.9,60.6,0.00,SSE,165,0.0,0.0,80,0.00,,---,0.00,VWS V13.01,2013-10-05 03:41:00,
2013-10-04 23:46:00,66.6,60.2,0.00,SSE,165,0.0,0.0,80,0.00,,---,0.00,VWS V13.01,2013-10-05 03:46:00,
2013-10-04 23:51:00,66.4,60.0,0.00,SSE,165,0.0,0.0,80,0.00,,---,0.00,VWS V13.01,2013-10-05 03:51:00,
2013-10-04 23:56:00,66.4,60.0,0.00,SSE,165,0.0,0.0,80,0.00,,---,0.00,VWS V13.01,2013-10-05 03:56:00,